Weather History for Holloman AFB, NM

Change the Weather History Date:

Friday, October 5, 2012

  Actual Average Record
Temperature  
Mean Temperature 74 °F -  
Max Temperature 89 °F 78 °F 89 °F (2007)
Min Temperature 60 °F 51 °F 45 °F (2013)
Cooling Degree Days 10    
Growing Degree Days 24 (Base 50)    
Moisture  
Dew Point 29 °F    
Average Humidity 21    
Maximum Humidity 37    
Minimum Humidity 8    
Precipitation  
Precipitation 0.00 in - - ()
Sea Level Pressure  
Sea Level Pressure 29.84 in    
Wind  
Wind Speed 7 mph (South)    
Max Wind Speed 18 mph    
Max Gust Speed 24 mph    
Visibility 10 miles    
Events      
Averages and records for this station are not official NWS values.
T = Trace of Precipitation, MM = Missing Value Source: NWS Daily Summary

Daily Weather History Graph

Daily Weather History Graph

Search for Another Location

Airport:

Trip Planner

Search our weather history database for the weather conditions in past years. The results will help you decide how hot, cold, wet, or windy it might be!

Date:

Astronomy

Oct. 05, 2012 Rise Set
Actual Time 7:01 AM MDT 6:43 PM MDT
Civil Twilight 6:37 AM MDT 7:07 PM MDT
Nautical Twilight 6:08 AM MDT 7:36 PM MDT
Astronomical Twilight 5:39 AM MDT 8:04 PM MDT
Moon 10:23 PM MDT (10/5) 11:56 AM MDT (10/5)
Length of Visible Light 12h 30m
Length of Day
11h 41m
Waning Gibbous, 73% of the Moon is Illuminated
Oct 5
Waning Gibbous
Oct 8
Last Quarter
Oct 15
New
Oct 21
First Quarter
Oct 29
Full

Hourly Weather History & Observations

Time (MDT) Temp. Dew Point Humidity Pressure Visibility Wind Dir Wind Speed Gust Speed Precip Events Conditions
12:55 AM 64.9 °F 32.4 °F 30% 29.87 in 10.0 mi SE 6.9 mph - N/A   Clear
1:55 AM 63.7 °F 33.1 °F 32% 29.87 in 10.0 mi SE 6.9 mph - N/A   Clear
2:55 AM 63.5 °F 34.0 °F 33% 29.86 in 10.0 mi SE 6.9 mph - N/A   Clear
3:55 AM 63.3 °F 32.7 °F 32% 29.86 in 10.0 mi ESE 4.6 mph - N/A   Clear
4:55 AM 62.1 °F 32.7 °F 33% 29.87 in 10.0 mi ESE 4.6 mph - N/A   Clear
5:55 AM 60.8 °F 32.9 °F 35% 29.87 in 10.0 mi ESE 4.6 mph - N/A   Clear
6:55 AM 60.1 °F 33.4 °F 37% 29.90 in 10.0 mi Calm Calm - N/A   Clear
7:55 AM 60.8 °F 34.0 °F 37% 29.91 in 10.0 mi SE 6.9 mph - N/A   Clear
8:55 AM 66.7 °F 35.1 °F 31% 29.93 in 10.0 mi South 5.8 mph - N/A   Clear
9:55 AM 70.9 °F 35.4 °F 27% 29.93 in 10.0 mi Calm Calm - N/A   Clear
10:55 AM 79.9 °F 33.8 °F 19% 29.90 in 10.0 mi Calm Calm - N/A   Clear
11:55 AM 83.7 °F 31.8 °F 15% 29.88 in 10.0 mi Variable 4.6 mph - N/A   Clear
12:55 PM 85.6 °F 24.6 °F 11% 29.85 in 10.0 mi WSW 12.7 mph 20.7 mph N/A   Clear
1:55 PM 87.3 °F 19.6 °F 8% 29.81 in 10.0 mi West 18.4 mph 24.2 mph N/A   Clear
2:55 PM 88.7 °F 25.5 °F 10% 29.77 in 10.0 mi WSW 16.1 mph 23.0 mph N/A   Clear
3:55 PM 89.6 °F 21.4 °F 8% 29.75 in 10.0 mi West 15.0 mph 24.2 mph N/A   Clear
4:55 PM 88.7 °F 26.1 °F 10% 29.74 in 10.0 mi WSW 12.7 mph - N/A   Clear
5:55 PM 85.6 °F 23.5 °F 10% 29.75 in 10.0 mi SW 17.3 mph - N/A   Clear
6:55 PM 81.5 °F 22.6 °F 11% 29.76 in 10.0 mi SW 16.1 mph - N/A   Clear
7:55 PM 76.3 °F 24.6 °F 15% 29.79 in 10.0 mi SSW 10.4 mph - N/A   Clear
8:55 PM 74.5 °F 26.8 °F 17% 29.80 in 10.0 mi SE 8.1 mph - N/A   Clear
9:55 PM 74.3 °F 24.3 °F 15% 29.80 in 10.0 mi SW 5.8 mph - N/A   Clear
10:55 PM 69.6 °F 25.5 °F 19% 29.79 in 10.0 mi ESE 4.6 mph - N/A   Clear
11:55 PM 67.8 °F 24.3 °F 19% 29.79 in 10.0 mi Calm Calm - N/A   Clear